Wind_Speed
17 17 17 17 17 17 17 16 16 16 16 16 15 16 16 15 16 16 17 17 18 19 20 20 20 20 20 20 20 20 21 22 22 23 23 23 23 23
18 19 19 19 19 19 19 19 19 18 18 18 18 18 18 17 18 18 18 19 20 20 20 21 21 21 22 23 23 23 23 23 23 24 24 24 24 23
21 21 21 21 21 21 21 21 21 20 20 20 20 19 20 20 20 20 20 21 21 22 23 23 24 24 24 24 25 25 24 25 25 25 25 25 25 25
23 23 23 23 23 23 22 22 22 22 22 21 22 22 22 22 23 23 23 24 24 24 25 25 26 26 26 26 26 26 26 26 26 25 25 25 25 25
25 25 24 24 24 24 24 24 23 23 23 23 23 23 24 24 25 25 26 26 26 26 27 27 27 28 28 28 27 27 27 27 27 26 26 26 25 25
27 26 26 26 26 25 25 25 25 25 25 25 25 25 25 26 27 27 27 28 28 29 29 29 29 29 29 29 29 29 28 28 28 27 27 26 26 27
28 28 28 27 27 27 27 27 27 27 28 27 27 27 27 27 28 28 29 29 30 30 30 30 30 30 30 30 30 30 29 29 28 27 27 27 27 28
29 29 29 28 28 28 29 29 29 28 28 28 27 28 28 29 30 30 30 30 30 31 31 31 31 31 31 31 31 30 30 30 29 28 28 28 28 28
31 30 30 30 30 30 30 30 30 29 29 29 29 29 30 30 31 31 31 32 32 32 32 31 32 32 32 31 30 30 31 30 29 28 28 29 29 29
32 32 32 32 32 32 32 31 31 31 32 31 31 31 32 32 32 33 34 34 34 33 33 33 32 33 32 31 31 31 30 29 29 29 29 30 30 30
33 34 34 33 33 34 33 33 32 33 33 33 33 33 33 34 34 34 35 35 34 33 33 33 32 32 32 31 30 29 29 28 29 29 29 29 30 30
34 34 34 34 35 34 34 34 34 34 34 34 34 34 34 34 34 35 35 35 34 34 34 33 32 32 31 31 30 29 28 29 29 29 29 29 29 29
35 35 35 35 36 36 36 36 35 35 35 35 35 34 33 34 34 34 35 35 34 33 33 33 32 32 31 30 29 29 29 29 30 30 30 29 29 29
37 37 37 37 37 37 37 37 36 36 36 35 34 34 34 34 35 35 34 34 34 33 33 32 31 31 30 30 29 30 30 30 31 31 31 29 28 28
39 39 39 38 37 37 37 37 36 36 36 36 35 34 34 34 34 34 33 33 32 32 31 31 31 31 31 30 30 30 30 31 31 31 30 29 29 28
40 39 38 38 38 37 37 36 36 36 36 35 34 34 34 34 33 33 33 33 33 32 31 31 31 32 31 31 31 30 31 31 31 30 30 29 28 28
39 38 37 37 38 37 37 37 36 36 36 35 35 35 34 34 33 33 33 33 32 31 31 31 32 32 32 32 31 31 31 31 30 29 29 29 28 27
38 37 37 37 37 37 37 36 36 36 37 36 35 35 34 34 34 34 33 33 32 32 31 31 32 32 32 32 31 31 30 30 30 30 28 27 27 27
37 37 37 36 36 35 35 35 35 35 35 35 34 34 34 34 34 34 33 32 32 32 32 31 31 31 31 31 31 32 31 29 29 28 27 27 27 27
36 36 35 34 33 34 34 34 34 33 34 34 33 33 34 35 34 33 33 32 32 32 31 31 30 30 30 30 30 30 30 29 29 28 27 27 26 27
33 32 32 32 32 33 33 33 32 32 33 33 33 33 33 33 33 32 32 32 32 31 31 30 30 30 30 29 29 29 29 28 28 27 26 26 26 27
31 31 31 31 32 32 32 32 32 33 33 33 32 32 32 32 32 32 31 31 31 30 30 29 28 28 28 28 28 28 28 27 26 27 27 27 27 27
31 31 31 31 31 30 31 31 32 32 33 33 32 32 32 32 31 31 32 32 31 30 30 29 28 28 28 27 27 27 27 26 25 25 26 27 27 27
Wind_Direction
295 295 295 293 293 293 293 293 292 292 292 294 289 292 293 293 296 297 298 300 303 301 297 295 295 296 298 299 299 300 300 300 300 300 300 300 298 294
296 294 293 293 292 290 289 290 291 292 292 292 291 293 292 292 295 295 299 300 299 301 300 297 296 295 297 298 297 297 298 298 298 298 297 298 298 294
295 294 294 293 293 291 288 288 289 289 290 290 290 291 293 293 294 295 297 297 298 297 297 297 296 294 295 296 296 296 297 299 299 298 297 297 296 293
293 292 293 293 291 290 289 288 287 288 288 286 288 288 288 291 292 293 294 295 295 296 295 295 294 292 292 293 294 294 296 297 298 299 298 297 296 295
291 291 290 291 289 288 288 289 288 288 288 287 287 286 287 289 292 292 292 293 293 293 294 294 293 291 290 290 291 292 293 294 295 296 295 294 294 294
289 290 290 290 289 288 290 290 288 286 287 287 287 288 288 289 291 291 291 291 292 292 293 293 292 292 291 290 290 291 292 293 294 293 292 291 292 292
287 288 288 289 289 288 289 290 287 284 284 286 287 288 289 290 292 293 292 290 291 293 293 292 291 290 290 289 290 290 290 291 292 290 290 290 291 291
284 285 286 287 287 287 287 288 286 285 283 284 286 288 290 291 291 291 291 292 291 292 291 290 290 290 290 289 290 289 288 289 289 289 289 290 290 290
282 283 284 283 284 286 285 285 285 284 284 285 286 288 290 291 291 291 290 291 291 293 291 289 290 291 291 289 288 288 288 288 288 288 288 290 290 289
281 281 282 281 283 285 285 284 284 283 283 284 286 287 288 290 290 291 291 291 291 291 291 292 291 291 290 291 290 288 287 288 289 289 289 290 290 291
280 281 282 282 283 284 283 282 281 283 283 283 285 286 288 289 289 291 292 292 291 290 290 291 291 291 291 291 290 288 287 289 291 291 290 290 290 291
279 280 281 282 284 285 284 282 282 283 282 283 284 285 286 288 289 290 290 291 291 289 289 290 291 291 291 291 290 289 288 288 290 290 290 289 289 290
280 280 281 281 283 283 284 284 282 282 281 282 283 283 285 287 289 289 290 290 289 288 288 289 290 290 291 290 288 288 288 287 288 290 291 289 289 290
279 279 280 280 281 282 283 283 282 281 281 282 283 283 284 286 288 289 289 288 287 288 288 288 289 289 289 289 288 288 288 288 288 288 289 288 289 290
277 278 278 278 280 280 283 281 279 280 280 281 282 284 285 286 288 289 289 288 288 288 287 288 287 287 288 288 288 289 289 289 289 288 288 287 288 289
276 276 278 280 281 281 281 280 279 279 279 280 280 282 284 285 286 288 288 287 287 286 286 285 285 287 288 288 289 289 289 288 289 288 287 288 289 291
277 277 277 278 280 280 280 280 278 277 277 278 279 280 282 283 284 285 285 285 286 285 285 286 286 287 288 288 288 288 288 288 288 289 289 288 289 291
277 277 278 279 279 279 280 278 278 279 279 278 277 278 279 281 282 282 282 283 284 285 285 286 286 288 289 288 288 289 288 287 287 288 289 289 289 290
276 277 278 278 278 278 279 279 278 279 280 280 279 278 278 278 279 279 279 281 284 285 286 286 286 287 288 288 288 289 290 289 288 287 287 288 289 289
276 276 277 277 278 279 279 278 277 278 278 279 279 278 278 278 278 278 278 281 283 284 285 286 287 287 287 288 288 289 289 288 287 286 284 285 286 287
275 275 276 277 278 278 278 277 277 276 277 278 279 280 280 279 277 277 279 281 283 284 284 284 285 286 286 287 288 289 288 288 286 285 284 284 284 286
273 275 275 277 278 277 277 277 277 277 277 277 278 279 278 278 278 278 280 282 283 284 283 283 284 284 285 286 288 289 288 287 285 284 284 284 285 286
273 275 277 278 278 277 278 277 277 279 279 278 277 276 276 276 278 280 281 282 282 281 282 282 282 281 283 285 286 287 287 287 285 284 286 287 285 284
Height
5892 5891 5890 5889 5889 5888 5887 5886 5886 5885 5884 5883 5881 5880 5880 5879 5879 5878 5877 5876 5875 5874 5873 5872 5871 5870 5869 5867 5866 5864 5863 5861 5860 5858 5856 5854 5853 5851
5889 5887 5886 5885 5884 5883 5883 5882 5881 5880 5879 5878 5877 5876 5875 5874 5874 5873 5872 5872 5871 5869 5868 5867 5866 5865 5863 5862 5860 5859 5857 5855 5854 5852 5850 5848 5846 5844
5884 5883 5882 5880 5879 5878 5877 5876 5876 5875 5874 5873 5872 5872 5870 5869 5868 5868 5867 5866 5865 5864 5863 5861 5860 5859 5857 5856 5854 5853 5851 5849 5847 5845 5843 5842 5840 5838
5879 5878 5876 5875 5874 5873 5872 5871 5870 5869 5869 5868 5867 5866 5865 5864 5863 5862 5861 5860 5859 5858 5857 5855 5853 5852 5850 5849 5848 5846 5844 5842 5840 5838 5837 5835 5833 5831
5873 5872 5871 5869 5868 5867 5866 5865 5864 5863 5863 5862 5861 5860 5859 5858 5857 5856 5854 5853 5852 5851 5849 5848 5846 5845 5843 5842 5840 5839 5837 5835 5833 5831 5830 5828 5826 5824
5866 5865 5865 5863 5862 5860 5860 5859 5858 5857 5856 5855 5854 5853 5852 5851 5850 5848 5847 5846 5845 5843 5842 5840 5838 5837 5835 5834 5833 5831 5829 5827 5825 5823 5822 5820 5818 5816
5859 5858 5858 5857 5856 5854 5853 5852 5851 5851 5850 5848 5847 5846 5845 5844 5842 5841 5839 5838 5836 5835 5833 5832 5830 5829 5827 5825 5824 5822 5820 5819 5817 5815 5814 5812 5810 5808
5852 5851 5850 5849 5848 5847 5846 5845 5844 5843 5842 5841 5840 5839 5838 5836 5834 5833 5831 5829 5828 5827 5825 5823 5821 5820 5818 5817 5815 5813 5812 5810 5808 5807 5805 5804 5802 5800
5843 5842 5842 5841 5840 5839 5837 5837 5836 5835 5835 5834 5833 5831 5830 5828 5826 5824 5822 5821 5819 5817 5815 5814 5812 5811 5809 5807 5806 5804 5803 5801 5800 5798 5797 5795 5793 5791
5835 5834 5833 5832 5831 5830 5829 5828 5828 5827 5826 5825 5824 5823 5821 5820 5818 5816 5814 5812 5810 5808 5806 5805 5803 5802 5800 5798 5797 5795 5793 5792 5791 5789 5788 5786 5784 5782
5825 5825 5824 5823 5822 5821 5820 5820 5819 5818 5817 5816 5815 5814 5812 5811 5809 5807 5805 5803 5801 5799 5797 5796 5794 5793 5791 5789 5787 5786 5784 5783 5782 5780 5779 5777 5775 5773
5816 5815 5814 5813 5813 5812 5811 5810 5809 5809 5808 5807 5806 5804 5803 5801 5799 5798 5796 5794 5792 5790 5788 5787 5785 5783 5782 5781 5778 5777 5775 5774 5773 5771 5769 5767 5765 5763
5805 5805 5804 5803 5803 5802 5801 5800 5799 5798 5798 5797 5796 5794 5793 5792 5790 5788 5786 5784 5782 5781 5779 5777 5776 5774 5772 5772 5770 5768 5767 5765 5764 5762 5760 5758 5756 5754
5795 5794 5794 5793 5792 5791 5790 5790 5789 5788 5787 5787 5786 5784 5783 5782 5781 5778 5777 5775 5773 5771 5769 5767 5766 5765 5763 5762 5761 5759 5757 5756 5754 5753 5751 5749 5747 5745
5783 5783 5782 5782 5781 5780 5780 5779 5778 5777 5777 5776 5776 5775 5774 5772 5770 5769 5767 5765 5763 5761 5760 5758 5757 5756 5754 5753 5751 5750 5748 5746 5744 5743 5741 5740 5738 5736
5772 5772 5771 5770 5769 5769 5768 5768 5767 5766 5766 5765 5765 5764 5763 5762 5761 5759 5757 5755 5753 5752 5750 5749 5747 5746 5745 5743 5741 5740 5738 5736 5734 5733 5731 5730 5729 5727
5760 5760 5760 5759 5759 5758 5757 5757 5756 5755 5755 5754 5754 5753 5752 5751 5750 5749 5747 5745 5744 5742 5741 5739 5738 5736 5734 5733 5731 5730 5728 5727 5725 5724 5723 5721 5720 5718
5748 5748 5747 5747 5747 5747 5746 5745 5745 5744 5744 5743 5743 5742 5741 5741 5740 5739 5737 5736 5734 5733 5732 5730 5728 5727 5725 5723 5722 5719 5717 5716 5716 5714 5713 5712 5711 5710
5736 5736 5736 5736 5735 5735 5735 5734 5734 5734 5733 5732 5732 5731 5731 5730 5729 5728 5727 5726 5724 5723 5722 5720 5718 5717 5716 5715 5712 5710 5708 5707 5706 5705 5704 5703 5702 5701
5725 5725 5724 5724 5724 5724 5724 5724 5723 5723 5722 5721 5720 5720 5720 5719 5718 5717 5716 5716 5714 5713 5712 5710 5709 5707 5706 5705 5703 5701 5699 5698 5696 5695 5695 5694 5693 5692
5714 5714 5713 5713 5714 5714 5713 5712 5712 5712 5712 5711 5710 5709 5708 5708 5707 5706 5706 5705 5704 5702 5702 5701 5699 5697 5696 5695 5694 5692 5691 5689 5687 5686 5685 5685 5684 5684
5703 5703 5704 5703 5703 5703 5703 5702 5702 5702 5701 5700 5699 5699 5698 5697 5696 5696 5695 5694 5693 5692 5691 5691 5689 5688 5687 5685 5685 5684 5682 5681 5679 5678 5677 5676 5675 5675
5694 5694 5694 5693 5693 5693 5692 5692 5691 5691 5690 5689 5689 5688 5688 5687 5686 5685 5685 5684 5683 5682 5682 5681 5680 5679 5678 5677 5676 5675 5674 5672 5671 5670 5669 5668 5667 5666